This demonstration page uses our WeatherBlox Daily Observations layout. Learn more.

Left ArrowRight Arrow

53.62937, 11.41316

Hourly Observations for April 21, 2022

Temp ( °F °C ) Dew Point ( °F °C ) Humidity (%) Winds ( mph kmh ) Pressure ( in mb ) Visibility ( mi km ) Precip ( " mm )
12:20 am 00:20 Mostly Clear 43 6 41 5 93 93 NE 3 6 30.03 1017 30 48 N/A
12:50 am 00:50 Mostly Clear 39 4 37 3 93 93 NNW 3 6 30.03 1017 30 48 N/A
1:20 am 01:20 Mostly Clear 41 5 39 4 93 93 VRB 2 4 30.03 1017 30 48 N/A
1:50 am 01:50 Mostly Clear 41 5 37 3 87 87 NNE 5 7 30.03 1017 30 48 N/A
2:20 am 02:20 Mostly Clear 41 5 39 4 93 93 N 6 9 30.03 1017 30 48 N/A
2:50 am 02:50 Mostly Clear 41 5 37 3 87 87 N 3 6 30.03 1017 30 48 N/A
3:20 am 03:20 Mostly Clear 41 5 39 4 93 93 N 6 9 30.03 1017 30 48 N/A
3:50 am 03:50 Mostly Clear 41 5 37 3 87 87 N 6 9 30.00 1016 30 48 N/A
4:20 am 04:20 Mostly Clear 39 4 36 2 87 87 NNW 3 6 30.00 1016 30 48 N/A
4:50 am 04:50 Mostly Clear 41 5 37 3 87 87 NNE 6 9 30.00 1016 30 48 N/A
5:20 am 05:20 Partly Cloudy 41 5 36 2 81 81 NE 7 11 30.00 1016 30 48 N/A
5:50 am 05:50 Cloudy 41 5 37 3 87 87 NNE 6 9 30.00 1016 30 48 N/A
6:20 am 06:20 Mostly Sunny 39 4 36 2 87 87 NNE 5 7 30.00 1016 30 48 N/A
6:50 am 06:50 Mostly Sunny 43 6 39 4 87 87 NNE 8 13 30.00 1016 30 48 N/A
7:20 am 07:20 Mostly Sunny 45 7 39 4 81 81 NE 9 15 30.00 1016 30 48 N/A
7:50 am 07:50 Mostly Sunny 46 8 39 4 76 76 NE 10 17 30.00 1016 7 11 N/A
8:20 am 08:20 Mostly Sunny 48 9 39 4 71 71 NE 10 17 30.00 1016 7 11 N/A
8:50 am 08:50 Mostly Sunny 48 9 39 4 71 71 ENE 15 24 30.00 1016 7 11 N/A
9:20 am 09:20 Mostly Sunny 50 10 39 4 67 67 NE 14 22 30.00 1016 7 11 N/A
9:50 am 09:50 Mostly Sunny 50 10 39 4 67 67 ENE 14 22 30.00 1016 7 11 N/A
10:20 am 10:20 Mostly Sunny 52 11 39 4 62 62 NNE 14 22 30.00 1016 7 11 N/A
10:50 am 10:50 Mostly Sunny 52 11 37 3 58 58 NNE 16 26 30.00 1016 7 11 N/A
11:20 am 11:20 Mostly Sunny 52 11 39 4 62 62 NNE 15 24 30.00 1016 7 11 N/A
11:50 am 11:50 Mostly Sunny 54 12 39 4 58 58 NNE 16 26 30.00 1016 7 11 N/A
12:20 pm 12:20 Mostly Sunny 52 11 39 4 62 62 NNE 16 26 30.00 1016 7 11 N/A
12:50 pm 12:50 Mostly Sunny 50 10 37 3 62 62 NNE 16 26 30.00 1016 7 11 N/A
1:20 pm 13:20 Mostly Sunny 52 11 39 4 62 62 NNE 15 24 30.00 1016 7 11 N/A
1:50 pm 13:50 Mostly Sunny 54 12 41 5 63 63 NNE 15 24 30.00 1016 7 11 N/A
2:20 pm 14:20 Mostly Sunny 52 11 39 4 62 62 NNE 17 28 30.00 1016 7 11 N/A
2:50 pm 14:50 Mostly Sunny 52 11 43 6 72 72 NNE 15 24 30.00 1016 7 11 N/A
3:20 pm 15:20 Mostly Sunny 52 11 41 5 67 67 NNE 15 24 30.00 1016 7 11 N/A
3:50 pm 15:50 Mostly Sunny 50 10 43 6 76 76 NE 14 22 30.00 1016 7 11 N/A
4:20 pm 16:20 Mostly Sunny 50 10 43 6 76 76 NNE 13 20 29.97 1015 7 11 N/A
4:50 pm 16:50 Mostly Sunny 48 9 43 6 82 82 NNE 13 20 29.97 1015 7 11 N/A
5:20 pm 17:20 Mostly Sunny 50 10 43 6 76 76 NE 10 17 29.97 1015 7 11 N/A
5:50 pm 17:50 Mostly Sunny 50 10 43 6 76 76 NNE 9 15 29.97 1015 7 11 N/A
6:20 pm 18:20 Mostly Sunny 52 11 43 6 72 72 NNE 10 17 29.97 1015 7 11 N/A
6:50 pm 18:50 Mostly Sunny 50 10 43 6 76 76 NNE 10 17 29.97 1015 7 11 N/A
7:20 pm 19:20 Mostly Sunny 48 9 43 6 82 82 NE 10 17 29.97 1015 7 11 N/A
7:50 pm 19:50 Mostly Sunny 48 9 43 6 82 82 NE 9 15 29.97 1015 7 11 N/A
8:20 pm 20:20 Mostly Sunny 48 9 43 6 82 82 NE 8 13 29.97 1015 7 11 N/A
8:50 pm 20:50 Mostly Clear 46 8 43 6 87 87 NE 8 13 29.97 1015 7 11 N/A
9:20 pm 21:20 Mostly Clear 43 6 41 5 93 93 NE 7 11 29.97 1015 30 48 N/A
9:50 pm 21:50 Mostly Clear 43 6 39 4 87 87 NE 6 9 29.97 1015 30 48 N/A
10:20 pm 22:20 Mostly Clear 43 6 37 3 81 81 ENE 7 11 29.97 1015 30 48 N/A
10:50 pm 22:50 Mostly Clear 43 6 39 4 87 87 ENE 5 7 29.97 1015 30 48 N/A
11:20 pm 23:20 Mostly Clear 41 5 37 3 87 87 NNE 5 7 29.98 1015 30 48 N/A
11:50 pm 23:50 Mostly Clear 43 6 39 4 87 87 ENE 5 7 29.97 1015 30 48 N/A

Powered by AerisWeather